Location: Newark
(48.6461°N, 4.3644°W)
Time: 18:25:11
(UTC+00:00)

Vanguard 1 - Visible Passes

Search period start: 20 January 2020 00:00
Search period end: 30 January 2020 00:00
Orbit: 651 x 3832 km, 34.2° (Epoch: 20 January)

Date Brightness Start Highest point End Pass type
(mag) Time Alt. Az. Time Alt. Az. Time Alt. Az.
20 Jan 11.7 18:10:16 10° S 18:12:35 13° SSE 18:15:14 10° SE visible
20 Jan 11.8 20:26:51 10° SW 20:29:29 21° SSW 20:29:29 21° SSW visible
21 Jan 11.6 18:30:05 10° SSW 18:33:05 16° SSE 18:36:36 10° SE visible
21 Jan 12.0 20:47:32 10° SW 20:49:19 18° SW 20:49:19 18° SW visible
22 Jan 11.5 18:50:17 10° SSW 18:53:39 18° SSE 18:56:27 14° SE visible
22 Jan 12.3 21:08:23 10° SW 21:09:09 13° SW 21:09:09 13° SW visible
23 Jan 11.5 19:10:44 10° SW 19:14:16 19° S 19:16:18 16° SE visible
24 Jan 11.5 19:31:20 10° SW 19:34:56 19° S 19:36:10 18° SSE visible
25 Jan 11.7 17:34:20 10° SSW 17:36:30 13° SSE 17:38:51 10° SE visible
25 Jan 11.6 19:52:07 10° SW 19:55:37 18° S 19:56:04 18° S visible
26 Jan 11.6 17:54:32 10° SSW 17:57:06 15° S 17:59:55 10° SE visible
26 Jan 11.8 20:13:07 10° SW 20:15:59 16° S 20:15:59 16° S visible
27 Jan 11.6 18:15:01 10° SSW 18:17:43 15° S 18:20:44 10° SE visible
27 Jan 12.1 20:34:29 10° SW 20:35:55 13° SSW 20:35:55 13° SSW visible
28 Jan 11.6 18:35:44 10° SW 18:38:22 15° S 18:41:19 10° SE visible
29 Jan 11.8 18:56:43 10° SW 18:59:01 14° S 19:01:37 10° SSE visible
